Theta_e
333 338 341 342 341 341 338 337 336 336 334 333 335 337 335 336 336 336 338 339 339 337 337 335 331 325 326 331 335 338 339 338 336 338 338 336 334 335 337 338 341 341 339
332 336 341 341 341 340 339 338 336 336 334 332 331 331 331 335 338 337 338 341 337 336 335 334 328 324 324 324 331 337 336 335 334 335 335 332 331 330 329 334 335 340 341
331 335 339 341 342 340 342 338 336 336 335 333 331 329 328 328 330 331 339 339 335 336 337 333 326 325 323 322 323 327 331 332 335 333 333 333 336 332 331 329 328 331 336
331 334 337 339 338 338 336 335 334 335 335 334 331 329 329 328 328 333 338 337 336 337 334 333 325 323 322 321 321 321 323 327 330 334 334 334 337 336 335 330 329 328 326
332 333 335 336 337 338 336 333 334 337 336 335 333 331 330 332 331 330 334 334 337 335 333 333 331 325 322 319 315 315 318 322 326 332 332 334 335 336 331 330 330 330 330
331 332 334 335 336 337 341 342 340 338 337 335 334 331 333 335 333 331 331 334 333 333 330 329 330 328 323 316 308 306 309 315 322 328 331 332 334 336 332 331 331 330 330
330 333 333 335 335 336 337 340 341 339 338 336 335 332 336 336 333 329 331 333 331 329 328 327 326 327 321 309 302 303 306 311 318 325 331 332 333 333 332 332 331 330 328
329 333 335 334 335 336 336 339 340 340 338 338 338 332 337 336 331 331 330 329 331 330 328 325 324 324 317 303 301 304 306 308 313 320 327 330 330 330 328 329 328 327 326
331 333 334 334 334 335 337 338 339 339 337 337 337 334 336 335 334 333 332 330 326 327 327 324 321 321 314 301 301 304 306 309 312 316 320 322 323 323 320 319 323 324 324
326 328 333 335 335 334 336 337 338 338 337 336 336 334 334 335 334 335 334 331 329 326 325 321 318 321 313 300 300 303 305 308 310 312 313 314 315 318 316 310 311 316 320
312 317 324 331 334 336 340 339 339 336 336 335 336 335 333 334 333 332 333 332 330 328 326 324 323 319 312 301 299 301 302 303 304 305 305 306 310 312 315 314 311 313 317
307 308 310 317 327 335 339 336 336 340 336 335 335 334 334 332 333 331 330 333 330 329 327 326 325 322 315 305 299 299 300 301 301 302 302 302 303 304 313 316 316 316 318
303 306 308 309 312 324 336 336 334 335 335 336 335 334 334 332 332 333 330 329 330 328 327 326 325 324 320 312 302 299 300 300 301 301 301 301 301 300 304 316 316 318 320
304 307 309 310 311 312 324 332 333 333 333 333 333 331 333 333 333 333 331 331 330 329 328 326 324 323 322 317 310 300 300 300 300 300 300 301 301 301 301 311 317 319 320
305 309 312 313 314 313 312 329 332 332 331 331 331 331 331 332 333 332 330 329 330 330 328 327 325 324 323 320 315 309 301 300 300 300 300 300 301 301 301 304 317 319 319
306 311 315 317 317 314 312 327 330 331 330 330 330 330 331 331 331 332 330 328 327 327 328 327 326 324 322 320 319 314 309 303 300 300 299 299 299 300 301 304 318 318 319
306 312 317 319 321 323 326 328 328 329 328 327 326 329 329 329 329 328 328 327 327 327 325 325 324 322 321 318 316 316 314 311 306 302 299 299 299 299 300 302 309 314 317
306 312 317 318 319 321 323 325 326 327 327 326 326 327 326 326 325 324 325 324 323 323 323 322 321 320 318 315 314 313 313 313 310 306 303 300 299 298 299 300 302 306 308
304 309 315 318 319 320 321 323 323 322 322 321 322 322 322 322 322 321 320 319 319 319 318 317 317 317 316 316 315 314 313 313 313 312 310 306 301 298 298 298 299 301 303
301 307 311 315 318 319 319 317 316 315 313 312 312 312 315 316 317 317 315 315 315 315 314 314 314 313 313 311 311 312 312 311 312 311 309 305 302 299 297 297 297 298 299
301 303 307 310 310 314 314 311 308 303 304 306 306 306 307 308 308 309 309 310 309 309 307 307 308 308 307 305 306 307 308 307 307 304 304 299 301 299 297 297 297 297 297
296 300 302 305 306 308 310 306 303 300 299 299 299 301 302 303 303 302 302 302 302 303 302 302 302 302 301 299 299 299 303 303 298 303 304 301 300 300 301 300 298 297 296
295 297 299 300 302 303 303 303 300 297 294 293 292 292 292 294 294 295 295 295 295 295 295 295 297 299 298 299 297 297 302 302 296 299 301 300 300 299 297 297 297 297 297
291 295 296 299 301 301 301 300 297 292 287 286 286 287 287 287 287 288 288 288 288 288 288 289 291 293 294 293 297 296 296 295 297 299 297 298 296 298 299 299 299 300 300
291 292 293 294 295 296 296 295 293 288 286 286 286 286 286 286 286 286 286 286 286 285 285 285 285 285 285 286 288 291 292 294 293 294 297 296 294 295 295 295 295 296 298
288 290 291 292 291 291 291 291 290 288 286 286 286 286 285 285 284 284 284 284 284 284 284 284 284 284 284 284 284 284 286 289 289 290 291 291 291 292 291 291 292 295 296
Wind_Speed
9 20 20 18 15 13 12 12 13 11 10 10 11 10 11 12 12 11 11 12 11 9 12 12 11 11 11 12 12 12 11 10 10 10 11 11 11 10 12 12 15 15 12
9 21 20 19 17 14 13 12 10 9 8 8 8 9 9 10 10 7 8 10 8 8 12 11 11 10 9 9 9 10 8 8 8 8 8 9 10 10 10 9 10 13 14
10 22 21 19 16 14 12 11 10 9 8 7 7 8 8 8 8 6 7 8 7 8 11 10 9 8 8 8 7 6 6 6 5 6 7 8 9 9 9 9 9 10 11
11 20 20 19 17 14 12 10 9 7 7 7 6 6 6 6 6 8 8 5 6 9 7 7 8 7 6 6 6 5 4 3 4 3 5 7 7 7 8 9 9 9 9
10 16 20 19 17 15 12 11 9 8 6 4 4 4 4 5 5 6 5 4 7 6 5 6 6 6 6 6 5 3 2 1 2 3 5 6 6 5 6 8 8 8 8
8 12 19 19 18 16 13 11 11 10 8 5 4 3 3 3 4 4 4 6 2 5 7 6 6 6 7 7 6 4 2 1 0 2 3 6 6 5 7 7 9 8 9
4 10 15 18 19 17 17 14 11 11 9 7 5 4 4 4 2 2 3 4 2 2 5 5 6 6 7 7 6 5 3 2 1 2 3 4 5 4 6 7 7 5 4
4 6 9 15 17 17 16 14 13 12 10 8 6 6 7 5 2 2 2 2 2 2 1 4 5 6 6 5 4 4 4 3 1 1 2 2 1 1 2 1 1 1 2
5 3 6 10 15 17 16 16 15 14 12 11 9 8 8 6 4 2 1 2 1 3 4 7 4 6 6 4 3 3 3 3 3 2 1 1 2 3 4 3 4 6 6
5 3 3 6 11 16 18 18 18 17 16 14 11 9 9 8 7 4 4 2 1 2 3 6 7 7 7 3 2 2 2 2 3 2 2 1 2 4 6 5 4 3 3
5 3 2 6 8 11 15 17 18 18 16 14 12 10 10 9 8 8 7 6 3 3 4 6 7 9 8 4 1 1 2 2 2 2 3 2 2 4 5 6 5 4 4
13 8 6 6 8 12 12 13 15 17 16 15 14 12 11 10 9 8 9 10 7 4 5 8 11 11 11 7 4 3 3 3 3 3 4 4 4 4 5 6 6 4 3
12 10 9 7 8 11 11 13 12 12 13 13 13 13 12 13 11 11 10 10 9 7 6 6 9 12 11 9 6 6 5 5 5 5 5 5 5 5 5 6 6 5 3
15 13 10 7 5 9 13 10 10 9 8 9 12 11 12 14 13 13 11 11 10 8 7 6 6 10 10 9 7 7 8 8 8 7 7 7 6 6 6 5 5 4 4
18 17 15 11 8 5 11 16 10 8 6 5 6 9 10 11 12 12 11 11 10 10 10 8 7 7 8 8 9 9 8 9 9 9 9 9 8 8 7 6 6 6 5
15 16 15 11 8 3 5 13 12 8 5 4 4 3 5 8 10 12 12 13 10 12 11 10 9 9 6 5 8 8 9 11 11 12 11 11 10 9 8 6 5 6 7
14 15 16 14 12 12 13 14 13 12 10 10 10 7 6 4 3 6 8 9 9 11 11 10 10 8 8 7 7 7 10 10 11 12 14 14 13 11 10 8 7 6 5
11 14 16 16 18 20 21 21 20 19 19 17 17 17 13 12 8 5 4 2 4 5 7 9 8 7 8 9 10 10 10 11 12 13 14 15 15 15 14 13 12 11 10
11 13 18 20 23 22 24 27 28 27 25 24 21 19 17 16 15 14 14 15 13 11 9 6 5 7 8 8 9 9 11 10 13 15 16 16 15 15 15 15 15 14 13
11 14 18 21 23 27 27 30 31 30 29 26 25 24 21 20 17 16 16 16 15 13 12 10 9 7 7 9 10 11 10 9 12 14 15 17 17 17 17 17 17 16 15
16 16 16 18 21 24 26 26 28 30 29 28 25 24 23 21 20 19 19 16 16 15 14 12 9 10 11 15 10 14 9 7 4 5 13 9 15 13 15 18 19 20 19
19 20 19 18 19 22 24 27 28 29 30 27 25 24 22 21 20 20 20 20 18 16 17 18 16 10 10 16 10 5 4 5 5 13 14 11 11 14 20 21 18 17 19
20 21 20 20 22 25 26 27 29 30 28 29 30 30 29 27 26 25 24 23 23 22 23 22 21 20 15 15 16 9 4 3 11 6 11 10 20 21 19 19 19 20 21
17 20 22 22 18 16 16 19 24 30 30 27 30 29 30 29 29 28 27 27 27 27 27 26 23 22 19 18 9 15 9 8 3 6 4 19 9 28 28 28 26 24 24
13 20 23 24 26 25 25 26 30 34 31 27 27 26 27 26 25 25 24 24 25 25 24 23 24 24 23 20 16 12 11 10 5 6 7 13 20 18 23 24 29 29 26
13 17 21 24 24 23 24 25 27 29 27 25 23 24 23 23 23 23 22 22 23 22 21 21 20 20 19 18 17 16 11 5 10 8 8 17 18 16 26 22 24 22 22
Wind_Direction
189 174 169 177 172 170 155 153 141 132 123 116 114 110 106 98 90 85 90 91 94 70 59 62 63 64 65 66 71 83 89 81 83 85 81 77 75 74 71 65 64 63 70
182 178 175 179 174 173 163 160 148 136 127 121 115 109 109 112 115 108 101 105 83 61 65 60 57 58 61 64 73 82 86 81 83 85 81 79 72 68 66 64 65 60 60
186 180 179 182 178 175 170 168 157 148 140 131 125 120 116 117 118 112 113 107 63 61 72 54 55 56 55 54 57 67 71 69 84 80 80 77 72 64 65 59 58 60 63
172 187 184 184 186 186 183 179 177 168 158 149 140 134 126 120 116 116 124 102 92 90 52 35 43 45 44 43 42 44 57 60 72 95 82 76 78 69 63 58 50 48 55
171 187 191 191 193 194 195 198 197 189 177 165 153 141 127 120 115 122 132 102 107 61 11 11 17 15 16 9 1 353 7 28 69 92 90 89 84 72 51 55 53 46 46
168 182 193 196 199 200 197 200 207 200 198 195 191 172 151 137 107 93 114 105 55 27 358 338 330 352 357 358 355 349 345 317 171 109 103 87 76 78 67 71 57 43 24
154 184 199 206 207 206 206 206 211 213 210 210 207 198 181 176 118 97 114 144 123 3 15 22 2 347 353 358 4 14 22 41 97 116 113 108 90 67 71 83 78 65 41
118 174 196 210 216 219 218 214 216 224 224 222 230 212 204 207 206 165 127 143 182 232 298 6 0 359 358 4 21 34 41 46 47 104 129 133 125 332 337 299 113 205 285
78 134 192 206 215 221 224 222 222 230 233 230 229 229 212 231 230 215 216 178 263 261 291 328 339 358 357 13 42 49 49 52 60 67 65 19 345 333 322 304 276 269 274
81 113 194 222 223 221 223 225 229 231 233 233 232 231 228 237 241 248 247 256 306 314 328 341 345 346 351 8 21 50 51 40 31 29 48 25 1 351 359 353 348 315 305
20 5 290 229 229 235 228 229 232 233 237 238 233 236 234 231 234 259 256 268 279 305 330 335 341 348 349 354 339 333 353 1 353 346 349 331 326 338 348 348 351 348 336
9 3 332 289 249 228 234 229 230 233 231 231 231 239 236 240 243 242 256 246 250 268 318 328 342 348 350 341 323 311 321 326 329 331 333 329 318 321 340 334 339 341 341
360 358 350 318 282 255 233 233 230 232 230 239 239 249 237 235 247 244 239 251 258 256 266 300 326 330 336 338 320 311 313 313 315 317 319 321 318 314 324 331 330 339 327
360 358 351 332 298 256 237 223 234 236 237 236 241 250 258 252 246 244 237 239 244 250 261 277 306 316 316 328 325 312 312 313 313 311 309 309 315 313 313 320 319 317 314
6 1 356 348 331 271 224 197 196 204 207 234 269 282 254 257 257 253 253 253 256 253 250 255 270 291 310 325 324 317 310 308 308 309 308 308 308 310 305 313 308 297 299
16 12 8 4 1 350 184 173 170 165 151 158 185 229 272 277 273 249 243 248 258 263 257 255 265 269 277 304 322 317 312 310 309 308 305 303 303 307 311 308 320 294 291
31 31 28 38 58 80 106 127 129 130 129 107 94 81 57 42 310 287 268 248 256 260 264 269 273 269 272 282 294 314 320 313 308 306 304 304 302 299 301 300 286 285 302
48 60 65 73 82 99 113 121 118 114 107 102 97 91 86 72 65 68 63 15 318 291 280 272 265 273 288 307 317 316 305 318 319 312 307 304 303 304 302 298 292 285 284
54 69 81 94 102 103 110 109 105 100 93 88 86 83 78 83 80 74 70 65 63 54 43 17 333 322 320 322 319 315 314 309 319 320 315 305 299 296 296 296 294 293 290
64 89 96 102 110 116 114 109 104 99 93 88 83 80 78 76 76 74 70 61 56 58 55 46 31 13 359 343 326 315 310 305 299 304 306 302 299 299 296 293 291 289 289
67 70 85 101 107 117 116 112 105 92 86 82 78 75 73 71 69 69 70 68 61 57 52 44 38 24 18 4 349 329 311 314 333 351 5 17 3 341 326 313 306 303 300
73 78 82 91 100 103 109 105 101 94 87 85 81 78 75 71 68 65 62 60 59 59 52 46 43 47 31 26 357 325 347 331 46 324 328 333 357 351 331 329 324 315 307
80 84 90 94 99 103 106 109 105 99 93 86 81 80 77 75 72 69 68 65 62 56 52 46 42 39 31 28 42 19 338 340 332 343 317 331 332 334 339 330 323 320 319
80 98 102 110 112 112 118 117 111 102 93 90 88 85 80 76 73 71 70 68 66 63 60 56 51 48 44 34 23 25 14 336 329 320 334 319 330 318 320 320 318 313 308
103 103 104 105 105 109 111 109 106 103 102 100 95 90 84 79 74 72 69 68 65 62 58 54 52 50 50 50 43 18 6 360 16 314 309 312 317 314 320 319 315 312 311
110 109 108 108 106 110 110 108 107 110 112 106 97 90 85 80 76 69 63 59 59 55 51 49 47 44 41 36 32 28 30 5 335 332 309 317 314 323 314 322 323 321 317